Location: Fort Wayne
(41.1310°N, 85.1290°W)
Time: 13:34:42
(UTC-04:00)

Meteor 2-9 Rocket - Visible Passes

Search period start: 31 July 2014 00:00
Search period end: 10 August 2014 00:00
Orbit: 791 x 897 km, 81.3° (Epoch: 30 July)

Date Brightness Start Highest point End Pass type
(mag) Time Alt. Az. Time Alt. Az. Time Alt. Az.
31 Jul 6.1 01:02:36 18° ENE 01:02:36 18° ENE 01:05:17 10° NE visible
31 Jul 4.6 02:44:29 52° NW 02:44:29 52° NW 02:49:18 10° N visible
01 Aug 6.2 00:48:49 15° ENE 00:48:49 15° ENE 00:50:56 10° NE visible
01 Aug 4.5 02:30:41 56° NW 02:30:41 56° NW 02:35:20 10° N visible
02 Aug 6.3 00:35:00 13° ENE 00:35:00 13° ENE 00:36:30 10° NE visible
02 Aug 4.5 02:16:52 59° NNW 02:16:52 59° NNW 02:21:22 10° N visible
03 Aug 6.5 00:21:10 11° ENE 00:21:10 11° ENE 00:21:52 10° ENE visible
03 Aug 4.6 02:03:03 58° N 02:03:03 58° N 02:07:23 10° N visible
04 Aug 4.7 01:49:12 56° N 01:49:12 56° N 01:53:23 10° N visible
04 Aug 6.4 03:31:04 11° WNW 03:31:31 11° WNW 03:33:10 10° NW visible
05 Aug 4.8 01:35:21 52° NNE 01:35:21 52° NNE 01:39:22 10° NNE visible
05 Aug 6.3 03:17:13 13° WNW 03:17:25 13° WNW 03:19:50 10° NW visible
06 Aug 4.9 01:21:30 47° NNE 01:21:30 47° NNE 01:25:21 10° NNE visible
06 Aug 6.2 03:03:22 15° WNW 03:03:22 15° WNW 03:06:16 10° NNW visible
07 Aug 5.0 01:07:37 43° NE 01:07:37 43° NE 01:11:19 10° NNE visible
07 Aug 6.2 02:49:29 17° WNW 02:49:29 17° WNW 02:52:37 10° NNW visible
08 Aug 5.1 00:53:44 39° NE 00:53:44 39° NE 00:57:16 10° NNE visible
08 Aug 6.1 02:35:36 19° WNW 02:35:36 19° WNW 02:38:53 10° NNW visible
09 Aug 5.2 00:39:50 35° NE 00:39:50 35° NE 00:43:12 10° NNE visible
09 Aug 6.0 02:21:42 21° WNW 02:21:42 21° WNW 02:25:07 10° NNW visible
